Lexington, KY

9:43 AM EST on February 28, 2017 (GMT -0500)
Blue Grass

Weather History for KLEX - May, 2013

Change the Weather History Date:

Sunday, May 19, 2013

  Actual Average Record
Temperature  
Mean Temperature 74 °F 65 °F  
Max Temperature 84 °F 75 °F 91 °F (1944)
Min Temperature 64 °F 55 °F 32 °F (2002)
Degree Days  
Heating Degree Days 0 3  
Month to date heating degree days 62 85  
Since 1 July heating degree days 4648 4574  
Cooling Degree Days 9 3  
Month to date cooling degree days 45 36  
Year to date cooling degree days 75 58  
Growing Degree Days 24 (Base 50)    
Moisture  
Dew Point 66 °F    
Average Humidity 78    
Maximum Humidity 100    
Minimum Humidity 55    
Precipitation  
Precipitation 0.00 in 0.17 in 1.96 in (1890)
Month to date precipitation 4.55 3.20  
Year to date precipitation 20.75 17.27  
Snow  
Snow 0.00 in 0.00 in - ()
Month to date snowfall 0.0 0.0  
Since 1 July snowfall 12.5 13.0  
Snow Depth 0.00 in    
Sea Level Pressure  
Sea Level Pressure 29.98 in    
Wind  
Wind Speed 5 mph (SSE)    
Max Wind Speed 12 mph    
Max Gust Speed 15 mph    
Visibility 6 miles    
Events Fog    
T = Trace of Precipitation, MM = Missing Value Source: NWS Daily Summary

Daily Weather History Graph

Daily Weather History Graph

Search for Another Location

Airport or City:

Trip Planner

Search our weather history database for the weather conditions in past years. The results will help you decide how hot, cold, wet, or windy it might be!

Date:

Astronomy

May. 19, 2013 Rise Set
Actual Time 6:24 AM EDT 8:45 PM EDT
Civil Twilight 5:54 AM EDT 9:15 PM EDT
Nautical Twilight 5:17 AM EDT 9:52 PM EDT
Astronomical Twilight 4:37 AM EDT 10:33 PM EDT
Moon 2:54 PM EDT (5/19) 2:41 AM EDT (5/19)
Length of Visible Light 15h 21m
Length of Day
14h 21m
Waxing Gibbous, 65% of the Moon is Illuminated
May 19
Waxing Gibbous
May 25
Full
May 31
Last Quarter
Jun 8
New
Jun 16
First Quarter

Hourly Weather History & Observations

Time (EDT) Temp. Heat Index Dew Point Humidity Pressure Visibility Wind Dir Wind Speed Gust Speed Precip Events Conditions
12:54 AM 68.0 °F - 64.9 °F 90% 29.98 in 10.0 mi SE 4.6 mph - N/A   Overcast
1:54 AM 66.9 °F - 64.9 °F 93% 29.97 in 10.0 mi SE 5.8 mph - N/A   Clear
2:54 AM 66.0 °F - 64.0 °F 93% 29.96 in 8.0 mi SSE 3.5 mph - N/A   Clear
3:54 AM 64.9 °F - 64.0 °F 97% 29.97 in 4.0 mi Calm Calm - N/A   Clear
4:54 AM 64.9 °F - 64.0 °F 97% 29.98 in 5.0 mi SSE 4.6 mph - N/A   Partly Cloudy
5:11 AM 64.4 °F - 62.6 °F 94% 30.00 in 1.5 mi South 4.6 mph - N/A   Scattered Clouds
5:27 AM 64.4 °F - 62.6 °F 94% 30.00 in 0.8 mi South 5.8 mph - N/A   Mostly Cloudy
5:38 AM 64.4 °F - 62.6 °F 94% 30.00 in 1.0 mi SSE 4.6 mph - N/A   Overcast
5:46 AM 64.4 °F - 64.4 °F 100% 30.00 in 3.0 mi SSE 5.8 mph - N/A   Overcast
5:54 AM 64.9 °F - 64.0 °F 97% 29.97 in 2.5 mi SSE 4.6 mph - N/A   Overcast
6:04 AM 64.4 °F - 64.4 °F 100% 30.00 in 1.5 mi SSE 3.5 mph - N/A   Overcast
6:17 AM 64.4 °F - 64.4 °F 100% 30.00 in 0.5 mi SSE 4.6 mph - N/A Fog Fog
6:24 AM 66.2 °F - 64.4 °F 94% 30.00 in 0.2 mi SSE 5.8 mph - N/A Fog Fog
6:49 AM 66.2 °F - 64.4 °F 94% 30.00 in 0.2 mi SE 4.6 mph - N/A Fog Fog
6:54 AM 66.0 °F - 64.9 °F 96% 29.98 in 0.2 mi SSE 4.6 mph - N/A Fog Fog
7:34 AM 64.4 °F - 64.4 °F 100% 30.00 in 0.2 mi SSE 6.9 mph - N/A Fog Fog
7:54 AM 66.2 °F - 64.4 °F 94% 30.02 in 0.2 mi SSE 6.9 mph - N/A Fog Fog
8:47 AM 66.2 °F - 66.2 °F 100% 30.02 in 0.5 mi SSE 4.6 mph - N/A Fog Fog
8:54 AM 66.9 °F - 66.0 °F 97% 30.01 in 0.5 mi SSE 6.9 mph - N/A Fog Fog
9:18 AM 68.0 °F - 66.2 °F 94% 30.03 in 1.5 mi SSE 4.6 mph - N/A   Overcast
9:45 AM 68.0 °F - 66.2 °F 94% 30.03 in 2.0 mi South 5.8 mph - N/A   Overcast
9:54 AM 69.1 °F - 66.9 °F 93% 30.02 in 2.0 mi South 4.6 mph - N/A   Overcast
10:44 AM 71.6 °F - 68.0 °F 88% 30.04 in 4.0 mi South 3.5 mph - N/A   Mostly Cloudy
10:54 AM 72.0 °F - 66.9 °F 84% 30.01 in 5.0 mi Calm Calm - N/A   Haze
11:36 AM 73.4 °F - 69.8 °F 88% 30.02 in 9.0 mi Calm Calm - N/A   Overcast
11:54 AM 75.0 °F - 68.0 °F 79% 30.00 in 9.0 mi Calm Calm - N/A   Overcast
12:54 PM 78.1 °F - 68.0 °F 71% 29.99 in 10.0 mi WSW 4.6 mph - N/A   Overcast
1:01 PM 78.8 °F - 66.2 °F 65% 30.00 in 10.0 mi Variable 3.5 mph - N/A   Clear
1:54 PM 81.0 °F 83.3 °F 66.9 °F 62% 29.96 in 10.0 mi SSE 3.5 mph - N/A   Mostly Cloudy
2:54 PM 82.4 °F 84.6 °F 66.2 °F 58% 29.98 in 10.0 mi Calm Calm - N/A   Scattered Clouds
3:54 PM 82.4 °F 84.6 °F 66.2 °F 58% 29.96 in 10.0 mi SSW 3.5 mph - N/A   Clear
4:54 PM 84.0 °F 86.5 °F 66.9 °F 56% 29.92 in 10.0 mi WSW 5.8 mph - N/A   Partly Cloudy
5:54 PM 81.0 °F 83.3 °F 66.9 °F 62% 29.91 in 10.0 mi SSW 5.8 mph - N/A   Mostly Cloudy
6:54 PM 80.1 °F 82.9 °F 69.1 °F 69% 29.92 in 10.0 mi South 3.5 mph - N/A   Clear
7:54 PM 78.1 °F - 70.0 °F 76% 29.93 in 9.0 mi South 8.1 mph - N/A   Scattered Clouds
8:54 PM 75.0 °F - 69.1 °F 82% 29.94 in 9.0 mi SSE 6.9 mph - N/A   Scattered Clouds
9:54 PM 73.9 °F - 69.1 °F 85% 29.94 in 9.0 mi South 5.8 mph - N/A   Clear
10:54 PM - - - N/A% 29.98 in - North - - N/A   Unknown
11:08 PM 71.6 °F - 68.0 °F 88% 29.98 in 10.0 mi South 6.9 mph - N/A   Clear
11:54 PM 71.6 °F - 68.0 °F 88% 29.96 in 10.0 mi South 6.9 mph - N/A   Clear
11:58 PM 69.8 °F - 68.0 °F 94% 29.99 in 10.0 mi South 8.1 mph - N/A   Clear